User: anonymous   Login
Location: Brachbach
(49.1847°N, 9.7240°E)
Time: 06:43:30
(UTC+00:00)
Language:

Okean 1-7 - Orbit

View from above orbital plane
View from above orbital plane
View from above satellite
View from above satellite

Ground track
Ground track

The orbit data is extracted from the following two-line orbital elements,

1 23317U 94066A   24205.55129830  .00004216  00000-0  40951-3 0  9992
2 23317  82.5348 195.5915 0020042  85.5755 274.7755 14.92249715611689
Epoch (UTC): 23 July 2024 13:13:52
Eccentricity: 0.0020042
inclination: 82.5348°
perigee height: 577 km
apogee height: 605 km
right ascension of ascending node: 195.5915°
argument of perigee: 85.5755°
revolutions per day: 14.92249715
mean anomaly at epoch: 274.7755°
orbit number at epoch: 61168

The dashed part of the orbit path shows where the satellite is in the earth's shadow,  

DLR